Weather History for KPVW - May, 2013

Change the Weather History Date:

Thursday, May 2, 2013

  Actual Average Record
Temperature  
Mean Temperature 40 °F -  
Max Temperature 49 °F 74 °F 96 °F (1920)
Min Temperature 34 °F 48 °F 33 °F (1954)
Degree Days  
Heating Degree Days 24    
Moisture  
Dew Point 25 °F    
Average Humidity 60    
Maximum Humidity 84    
Minimum Humidity 34    
Precipitation  
Precipitation 0.00 in - - ()
Sea Level Pressure  
Sea Level Pressure 30.43 in    
Wind  
Wind Speed 26 mph (NNE)    
Max Wind Speed 36 mph    
Max Gust Speed 52 mph    
Visibility 10 miles    
Events      
Averages and records for this station are not official NWS values.
T = Trace of Precipitation, MM = Missing Value Source: NWS Daily Summary

Daily Weather History Graph

Daily Weather History Graph

Search for Another Location

Airport or City:

Trip Planner

Search our weather history database for the weather conditions in past years. The results will help you decide how hot, cold, wet, or windy it might be!

Date:

Astronomy

May. 02, 2013 Rise Set
Actual Time 6:56 AM CDT 8:31 PM CDT
Civil Twilight 6:29 AM CDT 8:58 PM CDT
Nautical Twilight 5:57 AM CDT 9:31 PM CDT
Astronomical Twilight 5:23 AM CDT 10:05 PM CDT
Moon 2:25 AM CDT (5/2) 1:42 PM CDT (5/2)
Length of Visible Light 14h 29m
Length of Day
13h 35m
Waning Gibbous, 47% of the Moon is Illuminated
May 2
Waning Gibbous
May 9
New
May 17
First Quarter
May 24
Full
May 31
Last Quarter

Hourly Weather History & Observations

Time (CDT) Temp. Windchill Dew Point Humidity Pressure Visibility Wind Dir Wind Speed Gust Speed Precip Events Conditions
12:15 AM 39.7 °F 28.3 °F 32.2 °F 74% 30.27 in 10.0 mi North 28.8 mph 39.1 mph N/A   Overcast
12:35 AM 39.7 °F 27.8 °F 32.4 °F 75% 30.27 in 10.0 mi North 32.2 mph 42.6 mph N/A   Overcast
12:55 AM 37.4 °F 25.6 °F 30.9 °F 77% 30.29 in 7.0 mi North 26.5 mph 51.8 mph N/A   Overcast
1:15 AM 37.4 °F 24.6 °F 30.9 °F 77% 30.29 in 10.0 mi North 32.2 mph 44.9 mph N/A   Overcast
1:35 AM 37.4 °F 24.0 °F 30.7 °F 77% 30.30 in 10.0 mi North 35.7 mph 44.9 mph N/A   Overcast
1:55 AM 37.4 °F 25.4 °F 29.3 °F 73% 30.30 in 10.0 mi North 27.6 mph 42.6 mph N/A   Overcast
2:15 AM 37.4 °F 24.6 °F 29.7 °F 74% 30.31 in 10.0 mi North 32.2 mph 41.4 mph N/A   Overcast
2:35 AM 37.0 °F 25.1 °F 31.1 °F 79% 30.31 in 7.0 mi NNE 26.5 mph 42.6 mph N/A   Overcast
2:55 AM 36.0 °F 22.8 °F 30.0 °F 79% 30.30 in 7.0 mi North 31.1 mph 40.3 mph N/A   Overcast
3:15 AM 34.7 °F 22.2 °F 29.8 °F 82% 30.31 in 7.0 mi NNE 25.3 mph 42.6 mph N/A   Overcast
3:35 AM 36.0 °F 23.2 °F 29.8 °F 78% 30.32 in 10.0 mi North 28.8 mph 36.8 mph N/A   Overcast
3:55 AM 36.5 °F 24.7 °F 30.0 °F 77% 30.32 in 10.0 mi NNE 25.3 mph 38.0 mph N/A   Overcast
4:15 AM 35.2 °F 22.7 °F 29.3 °F 79% 30.32 in 10.0 mi North 26.5 mph 36.8 mph N/A   Overcast
4:35 AM 34.7 °F 22.0 °F 29.3 °F 81% 30.34 in 10.0 mi North 26.5 mph 35.7 mph N/A   Light Drizzle
4:55 AM 35.6 °F 24.2 °F 29.8 °F 80% 30.34 in 10.0 mi North 21.9 mph 34.5 mph N/A   Overcast
5:15 AM 34.7 °F 21.1 °F 29.8 °F 82% 30.35 in 10.0 mi North 31.1 mph 36.8 mph N/A   Overcast
5:35 AM 34.7 °F 23.1 °F 29.8 °F 82% 30.35 in 10.0 mi NNE 21.9 mph 39.1 mph N/A   Overcast
5:55 AM 34.7 °F 22.8 °F 30.2 °F 84% 30.37 in 10.0 mi North 23.0 mph 34.5 mph N/A   Overcast
6:15 AM 34.7 °F 22.2 °F 29.3 °F 81% 30.37 in 10.0 mi North 25.3 mph 29.9 mph N/A   Overcast
6:35 AM 34.7 °F 21.3 °F 29.1 °F 80% 30.38 in 10.0 mi North 29.9 mph 40.3 mph N/A   Overcast
6:55 AM 34.7 °F 21.5 °F 29.3 °F 81% 30.40 in 10.0 mi North 28.8 mph 41.4 mph N/A   Light Drizzle
7:15 AM 34.7 °F 21.3 °F 29.5 °F 81% 30.41 in 10.0 mi North 29.9 mph 38.0 mph N/A   Overcast
7:35 AM 34.7 °F 20.7 °F 29.1 °F 80% 30.42 in 10.0 mi North 33.4 mph 43.7 mph N/A   Overcast
7:55 AM 34.7 °F 20.9 °F 28.4 °F 78% 30.41 in 10.0 mi North 32.2 mph 42.6 mph N/A   Overcast
8:15 AM 34.7 °F 21.5 °F 27.9 °F 76% 30.43 in 10.0 mi North 28.8 mph 43.7 mph N/A   Overcast
8:35 AM 35.2 °F 22.5 °F 27.9 °F 74% 30.44 in 10.0 mi North 27.6 mph 39.1 mph N/A   Overcast
8:55 AM 36.3 °F 24.9 °F 28.0 °F 72% 30.45 in 10.0 mi North 23.0 mph 41.4 mph N/A   Overcast
9:15 AM 37.4 °F 25.2 °F 28.4 °F 70% 30.46 in 10.0 mi NNE 28.8 mph 44.9 mph N/A   Overcast
9:35 AM 37.4 °F 25.0 °F 28.2 °F 69% 30.46 in 10.0 mi North 29.9 mph 42.6 mph N/A   Overcast
9:55 AM 37.4 °F 25.9 °F 27.9 °F 68% 30.47 in 10.0 mi North 25.3 mph 40.3 mph N/A   Overcast
10:15 AM 37.4 °F 25.2 °F 27.5 °F 67% 30.49 in 10.0 mi North 28.8 mph 39.1 mph N/A   Overcast
10:35 AM 37.4 °F 25.0 °F 27.1 °F 66% 30.49 in 10.0 mi North 29.9 mph 40.3 mph N/A   Overcast
10:55 AM 39.7 °F 28.1 °F 28.8 °F 65% 30.49 in 10.0 mi North 29.9 mph 41.4 mph N/A   Overcast
11:15 AM 38.1 °F 26.1 °F 27.1 °F 65% 30.50 in 10.0 mi North 28.8 mph 36.8 mph N/A   Overcast
11:35 AM 37.8 °F 26.1 °F 26.8 °F 65% 30.51 in 10.0 mi North 26.5 mph 38.0 mph N/A   Overcast
11:55 AM 37.4 °F 25.2 °F 27.0 °F 66% 30.51 in 10.0 mi North 28.8 mph 42.6 mph N/A   Overcast
12:15 PM 37.4 °F 25.4 °F 26.6 °F 65% 30.51 in 10.0 mi North 27.6 mph 38.0 mph N/A   Overcast
12:35 PM 39.7 °F 28.8 °F 27.1 °F 61% 30.51 in 10.0 mi NNE 26.5 mph 35.7 mph N/A   Overcast
12:55 PM 41.0 °F 31.1 °F 26.6 °F 57% 30.50 in 10.0 mi NNE 23.0 mph 38.0 mph N/A   Overcast
1:15 PM 42.3 °F 32.4 °F 26.2 °F 53% 30.51 in 10.0 mi North 25.3 mph 40.3 mph N/A   Overcast
1:35 PM 42.3 °F 31.6 °F 26.1 °F 53% 30.50 in 10.0 mi North 29.9 mph 40.3 mph N/A   Overcast
1:55 PM 43.2 °F 33.2 °F 25.5 °F 50% 30.50 in 10.0 mi NNE 27.6 mph 33.4 mph N/A   Overcast
2:15 PM 43.5 °F 34.0 °F 24.4 °F 47% 30.50 in 10.0 mi NNE 25.3 mph 35.7 mph N/A   Overcast
2:35 PM 43.7 °F 33.5 °F 24.4 °F 47% 30.49 in 10.0 mi North 29.9 mph 35.7 mph N/A   Overcast
2:55 PM 43.7 °F 34.7 °F 24.4 °F 47% 30.50 in 10.0 mi NNE 23.0 mph 36.8 mph N/A   Overcast
3:15 PM 43.9 °F 33.8 °F 24.3 °F 46% 30.50 in 10.0 mi North 29.9 mph 39.1 mph N/A   Overcast
3:35 PM 44.1 °F 35.2 °F 25.2 °F 47% 30.50 in 10.0 mi NNE 23.0 mph 35.7 mph N/A   Overcast
3:55 PM 43.7 °F 35.4 °F 24.6 °F 47% 30.50 in 10.0 mi NNE 19.6 mph 31.1 mph N/A   Overcast
4:15 PM 43.7 °F 34.7 °F 24.3 °F 46% 30.50 in 10.0 mi NNE 23.0 mph 29.9 mph N/A   Overcast
4:35 PM 44.4 °F 35.9 °F 24.1 °F 45% 30.49 in 10.0 mi NNE 21.9 mph 31.1 mph N/A   Overcast
4:55 PM 45.0 °F 37.4 °F 23.5 °F 43% 30.48 in 10.0 mi NNE 18.4 mph 33.4 mph N/A   Overcast
5:15 PM 46.9 °F - 24.6 °F 42% 30.48 in 10.0 mi NNE 21.9 mph 31.1 mph N/A   Overcast
5:35 PM 47.3 °F - 23.7 °F 40% 30.47 in 10.0 mi North 23.0 mph 29.9 mph N/A   Mostly Cloudy
5:55 PM 47.3 °F - 23.2 °F 39% 30.47 in 10.0 mi NNE 25.3 mph 36.8 mph N/A   Mostly Cloudy
6:15 PM 47.1 °F - 23.0 °F 39% 30.47 in 10.0 mi North 21.9 mph 33.4 mph N/A   Mostly Cloudy
6:35 PM 47.3 °F - 22.3 °F 37% 30.47 in 10.0 mi NNE 24.2 mph 28.8 mph N/A   Scattered Clouds
6:55 PM 47.3 °F - 21.7 °F 36% 30.46 in 10.0 mi North 19.6 mph 26.5 mph N/A   Clear
7:15 PM 47.3 °F - 21.2 °F 36% 30.46 in 10.0 mi NNE 19.6 mph 28.8 mph N/A   Clear
7:35 PM 47.3 °F - 21.2 °F 36% 30.46 in 10.0 mi NNE 19.6 mph - N/A   Clear
7:55 PM 47.1 °F - 21.0 °F 36% 30.46 in 10.0 mi NNE 18.4 mph 21.9 mph N/A   Clear
8:15 PM 45.9 °F 39.4 °F 18.9 °F 34% 30.46 in 10.0 mi NNE 15.0 mph 26.5 mph N/A   Clear
8:35 PM 44.4 °F 38.2 °F 17.6 °F 34% 30.47 in 10.0 mi NNE 12.7 mph 18.4 mph N/A   Clear
8:55 PM 43.2 °F 37.0 °F 17.6 °F 36% 30.47 in 10.0 mi North 11.5 mph - N/A   Clear
9:15 PM 42.8 °F 37.0 °F 16.7 °F 35% 30.47 in 10.0 mi NNE 10.4 mph 16.1 mph N/A   Clear
9:35 PM 42.3 °F 36.8 °F 16.7 °F 36% 30.47 in 10.0 mi NNE 9.2 mph - N/A   Clear
9:55 PM 41.0 °F 35.2 °F 16.5 °F 37% 30.48 in 10.0 mi North 9.2 mph - N/A   Clear
10:15 PM 39.7 °F 34.9 °F 16.5 °F 39% 30.48 in 10.0 mi NNE 6.9 mph - N/A   Clear
10:35 PM 37.4 °F 32.8 °F 16.2 °F 42% 30.48 in 10.0 mi North 5.8 mph - N/A   Clear
10:55 PM 37.4 °F 31.4 °F 16.3 °F 42% 30.48 in 10.0 mi North 8.1 mph - N/A   Clear
11:15 PM 36.1 °F 29.9 °F 16.9 °F 46% 30.48 in 10.0 mi North 8.1 mph - N/A   Clear
11:35 PM 34.7 °F 29.6 °F 16.7 °F 48% 30.48 in 10.0 mi North 5.8 mph - N/A   Clear
11:55 PM 35.6 °F 29.9 °F 16.9 °F 47% 30.47 in 10.0 mi North 6.9 mph - N/A   Clear